sat.trackr.live / text

‹ back to catalog

STARLINK-31883

NORAD 60020 · 2024-111E

PAYLOAD ACTIVE UNKNOWN

§ Identity

Operator
Country
US
Launch date
2024-06-08
Launch site
AFETR
Launch vehicle
Mass (kg)
RCS (m²)

Purposes: comms

External: N2YO · Heavens-Above · Gunter

§ Orbital elements

Epoch: 2026-05-25T04:48:59.915808Z

Period
94.11 min
Inclination
53.1611°
Eccentricity
0.0001222
Mean motion
15.30195901 rev/d
Perigee alt
474.4 km
Apogee alt
476.1 km
Semi-major
6,853.4 km
B*
5.2084e-5
RAAN
80.5273°
Arg perigee
90.1768°
Mean anomaly
269.9373°
Rev number
11,069

§ Raw data

STARLINK-318831 60020U 24111E   26145.20069347  .00001184  00000+0  52084-4 0  99922 60020  53.1611  80.5273 0001222  90.1768 269.9373 15.30195901110690

JSON: /api/v1/satellites/60020 · /tle

For live sub-satellite position, see the globe view (requires WebGL).

§ Visibility from observer

Set your observer location to see the next 7 days of passes ≥ 10°. The values pass through the URL so the page stays shareable.

No JS? Fill the form by hand. The geolocation button needs JavaScript.